Location: Oso
(48.2715°N, 121.9283°W)
Time: 10:39:44
(UTC+00:00)

ISS - Visible Passes

Search period start: 20 May 2022 00:00
Search period end: 30 May 2022 00:00
Orbit: 414 x 421 km, 51.6° (Epoch: 20 May)

Date Brightness Start Highest point End Pass type
(mag) Time Alt. Az. Time Alt. Az. Time Alt. Az.
20 May -2.9 05:03:30 10° W 05:06:48 51° N 05:10:05 10° ENE visible
20 May -3.0 06:40:37 10° WNW 06:43:55 51° N 06:45:28 26° ENE visible
20 May -1.5 08:17:27 10° WNW 08:18:23 17° WNW 08:18:23 17° WNW visible
21 May -2.7 05:52:37 10° WNW 05:55:52 46° N 05:59:01 11° E visible
21 May -3.0 07:29:28 10° WNW 07:31:54 45° WNW 07:31:54 45° WNW visible
22 May -2.6 05:04:34 10° WNW 05:07:48 44° N 05:11:03 10° ENE visible
22 May -3.7 06:41:29 10° WNW 06:44:51 76° NNE 06:45:27 56° E visible
23 May -3.3 05:53:28 10° WNW 05:56:48 60° NNE 05:58:59 19° E visible
23 May -1.9 07:30:22 10° WNW 07:31:53 22° W 07:31:53 22° W visible
24 May -3.0 05:05:27 10° WNW 05:08:44 50° N 05:12:00 10° E visible
24 May -3.6 06:42:16 10° WNW 06:45:25 56° SW 06:45:25 56° SW visible
25 May -3.9 05:54:12 10° WNW 05:57:34 82° SSW 05:58:58 32° ESE visible
25 May -1.1 07:31:39 10° W 07:31:53 11° W 07:31:53 11° W visible
26 May -3.6 05:06:09 10° WNW 05:09:30 75° NNE 05:12:32 12° ESE visible
26 May -2.2 06:43:11 10° W 06:45:26 24° WSW 06:45:26 24° WSW visible
27 May -3.1 05:54:56 10° WNW 05:58:06 39° SSW 05:59:00 31° S visible
28 May -3.6 05:06:45 10° WNW 05:10:04 59° SSW 05:12:35 16° SE visible
28 May -1.2 06:45:05 10° WSW 06:45:30 11° WSW 06:45:30 11° WSW visible
29 May -1.9 05:56:00 10° W 05:58:21 18° SW 05:59:06 17° SSW visible
